Weather in Poltakov

Russia / Republic of Khakassia     52°57′14″N   90°11′14″E
temp.,
°C
wind,
m/s
gust,
m/s
humid.,
%
clouds,
%
prec.,
mm/h
press.,
hPa
HPBL,
m
21 january, thu
thu2101:00−21ne1197100 0.0 102724
04:00−21ne1198100 0.0 102542
07:00−20nne1199100 0.3 102462
10:00−17ssw1197100 1.3 102272
13:00−12w0093100 1.3 102074
16:00−7e119898 0.1 101867
19:00−6ssw129399 0.1 101822
22:00−6wsw1291100 0.0 101721
22 january, fri
fri2201:00−6wnw1195100 0.2 101521
04:00−7n1195100 0.0 101221
07:00−7ene1197100 0.1 100928
10:00−8sw1196100 0.0 100724
13:00−4sw2488100 0.0 1005156
16:00−1sw51384100 0.0 1007547
19:00−5sw41086100 0.0 1010213
22:00−6wsw2392100 0.1 101276
23 january, sat
sat2301:00−6sw2396100 0.9 1015115
04:00−8wsw61183100 0.2 1020389
07:00−12wsw61380100 0.2 1025417
10:00−14wsw61579100 0.0 1030552
13:00−12wsw61078100 0.0 1030972
16:00−14sw368396 0.0 1030157
19:00−17sw228495 0.0 103220
22:00−19wsw228893 0.0 103420
24 january, sun
sun2401:00−18wsw228996 0.0 103320
04:00−18wsw229099 0.0 103420
07:00−19wsw2290100 0.0 103420
10:00−17wsw2291100 0.0 103531
13:00−15w1287100 0.0 1033154
16:00−15wsw1191100 0.0 103325
19:00−16sw1189100 0.0 103520
22:00−17wsw2394100 0.1 103747
25 january, mon
mon2501:00−20wsw71479100 0.1 1039524
04:00−23wsw71578100 0.0 1042489
07:00−26wsw4118286 0.0 1043290
10:00−28wsw238720 0.0 104434
13:00−22wsw278318 0.0 1041414
16:00−21ssw238746 0.0 103975
19:00−25wsw128632 0.0 104020
22:00−26nne2288100 0.0 103819